sat.trackr.live / text

‹ back to catalog

HAWK-13B

NORAD 67396 · 2026-004AK

PAYLOAD ACTIVE UNKNOWN

§ Identity

Operator
Country
US
Launch date
2026-01-11
Launch site
AFWTR
Launch vehicle
Mass (kg)
RCS (m²)

External: N2YO · Heavens-Above · Gunter

§ Orbital elements

Epoch: 2026-09-20T22:41:32.486496Z

Period
94.75 min
Inclination
97.4592°
Eccentricity
0.0006898
Mean motion
15.19804669 rev/d
Perigee alt
501.7 km
Apogee alt
511.2 km
Semi-major
6,884.6 km
B*
1.3163e-4
RAAN
261.8408°
Arg perigee
16.5095°
Mean anomaly
343.6363°
Rev number
3,830

§ Raw data

HAWK-13B1 67396U 26004AK  26263.94551489  .00002751  00000+0  13163-3 0  99982 67396  97.4592 261.8408 0006898  16.5095 343.6363 15.19804669 38306

JSON: /api/v1/satellites/67396 · /tle

For live sub-satellite position, see the globe view (requires WebGL).

§ Visibility from observer

Set your observer location to see the next 7 days of passes ≥ 10°. The values pass through the URL so the page stays shareable.

No JS? Fill the form by hand. The geolocation button needs JavaScript.